Time,TemperatureF,DewpointF,PressureIn,WindDirection,WindDirectionDegrees,WindSpeedMPH,WindSpeedGustMPH,Humidity,HourlyPrecipIn,Conditions,Clouds,dailyrainin,SoftwareType,DateUTC
2013-11-26 00:02:00,63.0,61.9,29.94,SE,134,10.0,15.0,96,0.00,,,0.00,meteohub,2013-11-26 06:02:00,
2013-11-26 00:07:00,63.0,61.9,29.92,SSE,161,9.0,17.0,96,0.00,,,0.00,meteohub,2013-11-26 06:07:00,
2013-11-26 00:12:00,63.1,62.1,29.92,SE,143,5.0,17.0,96,0.00,,,0.00,meteohub,2013-11-26 06:12:00,
2013-11-26 00:17:00,63.1,62.1,29.92,NE,51,7.0,17.0,96,0.00,,,0.00,meteohub,2013-11-26 06:17:00,
2013-11-26 00:23:00,63.3,62.2,29.91,SSE,167,1.0,17.0,96,0.00,,,0.00,meteohub,2013-11-26 06:23:00,
2013-11-26 00:28:00,63.5,62.4,29.91,SSW,209,2.0,16.0,96,0.00,,,0.00,meteohub,2013-11-26 06:28:00,
2013-11-26 00:33:00,63.7,62.6,29.91,ENE,76,12.0,16.0,96,0.00,,,0.00,meteohub,2013-11-26 06:33:00,
2013-11-26 00:38:00,63.7,62.6,29.92,SSE,151,5.0,20.0,96,0.00,,,0.00,meteohub,2013-11-26 06:38:00,
2013-11-26 00:43:00,63.9,62.8,29.91,NNE,25,3.0,20.0,96,0.00,,,0.00,meteohub,2013-11-26 06:43:00,
2013-11-26 00:48:00,63.9,62.8,29.90,ENE,78,9.0,20.0,96,0.00,,,0.00,meteohub,2013-11-26 06:48:00,
2013-11-26 00:53:00,64.0,63.0,29.89,WSW,246,2.0,18.0,96,0.00,,,0.00,meteohub,2013-11-26 06:53:00,
2013-11-26 00:58:00,64.0,63.0,29.89,East,100,5.0,18.0,96,0.00,,,0.00,meteohub,2013-11-26 06:58:00,
2013-11-26 01:03:00,64.2,63.1,29.89,SSE,166,4.0,18.0,96,0.00,,,0.00,meteohub,2013-11-26 07:03:00,
2013-11-26 01:08:00,64.2,63.1,29.88,ESE,120,10.0,16.0,96,0.00,,,0.00,meteohub,2013-11-26 07:08:00,
2013-11-26 01:13:00,64.2,63.1,29.88,East,86,10.0,16.0,96,0.00,,,0.00,meteohub,2013-11-26 07:13:00,
2013-11-26 01:18:00,64.2,63.1,29.88,SE,133,3.0,16.0,96,0.00,,,0.00,meteohub,2013-11-26 07:18:00,
2013-11-26 01:27:00,64.4,63.3,29.88,ENE,78,4.0,16.0,96,0.00,,,0.00,meteohub,2013-11-26 07:27:00,
2013-11-26 01:32:00,64.6,63.1,29.88,SE,128,7.0,16.0,95,0.00,,,0.00,meteohub,2013-11-26 07:32:00,
2013-11-26 01:38:00,64.6,63.1,29.88,SE,140,4.0,16.0,95,0.00,,,0.00,meteohub,2013-11-26 07:38:00,
2013-11-26 01:43:00,64.8,63.3,29.88,South,172,1.0,16.0,95,0.00,,,0.00,meteohub,2013-11-26 07:43:00,
2013-11-26 01:48:00,64.8,63.3,29.87,ESE,117,5.0,18.0,95,0.00,,,0.00,meteohub,2013-11-26 07:48:00,
2013-11-26 01:53:00,64.9,63.5,29.86,ESE,116,3.0,18.0,95,0.00,,,0.00,meteohub,2013-11-26 07:53:00,
2013-11-26 01:58:00,64.9,63.5,29.85,SSE,159,3.0,13.0,95,0.00,,,0.00,meteohub,2013-11-26 07:58:00,
2013-11-26 02:03:00,64.9,63.9,29.83,ESE,113,4.0,17.0,96,0.00,,,0.00,meteohub,2013-11-26 08:03:00,
2013-11-26 02:08:00,65.1,64.0,29.83,NE,38,1.0,17.0,96,0.00,,,0.00,meteohub,2013-11-26 08:08:00,
2013-11-26 02:13:00,65.3,64.0,29.83,East,86,6.0,16.0,96,0.00,,,0.00,meteohub,2013-11-26 08:13:00,
2013-11-26 02:18:00,65.5,64.2,29.82,SE,138,6.0,18.0,96,0.00,,,0.00,meteohub,2013-11-26 08:18:00,
2013-11-26 02:23:00,65.5,64.2,29.81,East,101,6.0,19.0,96,0.00,,,0.00,meteohub,2013-11-26 08:23:00,
2013-11-26 02:28:00,65.5,64.2,29.79,SE,130,13.0,27.0,96,0.00,,,0.00,meteohub,2013-11-26 08:28:00,
2013-11-26 02:33:00,65.5,64.2,29.80,NNE,32,15.0,27.0,96,0.00,,,0.00,meteohub,2013-11-26 08:33:00,
2013-11-26 02:38:00,65.7,64.4,29.81,SSE,153,11.0,28.0,96,0.00,,,0.00,meteohub,2013-11-26 08:38:00,
2013-11-26 02:43:00,65.7,64.4,29.83,SSE,154,4.0,28.0,96,0.00,,,0.00,meteohub,2013-11-26 08:43:00,
2013-11-26 02:48:00,65.7,64.4,29.83,ESE,121,8.0,28.0,96,0.00,,,0.00,meteohub,2013-11-26 08:48:00,
2013-11-26 02:53:00,65.8,64.6,29.83,ESE,114,5.0,23.0,96,0.00,,,0.00,meteohub,2013-11-26 08:53:00,
2013-11-26 02:58:00,65.8,64.6,29.82,South,173,8.0,23.0,96,0.00,,,0.00,meteohub,2013-11-26 08:58:00,
2013-11-26 03:03:00,65.8,64.6,29.81,East,83,16.0,23.0,96,0.00,,,0.00,meteohub,2013-11-26 09:03:00,
2013-11-26 03:08:00,65.8,64.6,29.82,SE,125,11.0,23.0,96,0.00,,,0.00,meteohub,2013-11-26 09:08:00,
2013-11-26 03:13:00,65.8,64.6,29.82,ESE,110,8.0,26.0,96,0.00,,,0.00,meteohub,2013-11-26 09:13:00,
2013-11-26 03:18:00,65.8,64.6,29.83,SE,129,6.0,26.0,96,0.00,,,0.00,meteohub,2013-11-26 09:18:00,
2013-11-26 03:23:00,65.7,64.8,29.80,South,177,7.0,26.0,97,0.00,,,0.00,meteohub,2013-11-26 09:23:00,
2013-11-26 03:28:00,65.7,64.4,29.80,South,182,6.0,19.0,96,0.00,,,0.00,meteohub,2013-11-26 09:28:00,
2013-11-26 03:33:00,65.5,64.2,29.81,East,92,5.0,19.0,96,0.00,,,0.00,meteohub,2013-11-26 09:33:00,
2013-11-26 03:38:00,65.7,64.8,29.82,SE,143,3.0,18.0,97,0.00,,,0.00,meteohub,2013-11-26 09:38:00,
2013-11-26 03:43:00,65.5,64.6,29.81,SSE,156,3.0,23.0,97,0.00,,,0.00,meteohub,2013-11-26 09:43:00,
2013-11-26 03:48:00,65.7,64.8,29.81,NNE,17,9.0,23.0,97,0.00,,,0.00,meteohub,2013-11-26 09:48:00,
2013-11-26 03:53:00,65.5,64.6,29.80,SSW,213,4.0,24.0,97,0.00,,,0.00,meteohub,2013-11-26 09:53:00,
2013-11-26 03:58:00,65.5,64.6,29.80,SE,140,5.0,24.0,97,0.00,,,0.00,meteohub,2013-11-26 09:58:00,
2013-11-26 04:03:00,65.5,64.6,29.80,SSE,148,10.0,24.0,97,0.00,,,0.00,meteohub,2013-11-26 10:03:00,
2013-11-26 04:08:00,65.3,64.4,29.80,South,175,2.0,20.0,97,0.00,,,0.00,meteohub,2013-11-26 10:08:00,
2013-11-26 04:13:00,65.1,64.2,29.78,SE,133,2.0,22.0,97,0.00,,,0.00,meteohub,2013-11-26 10:13:00,
2013-11-26 04:18:00,65.1,64.2,29.78,SSW,203,3.0,24.0,97,0.00,,,0.00,meteohub,2013-11-26 10:18:00,
2013-11-26 04:23:00,64.9,64.0,29.79,ESE,122,15.0,24.0,97,0.00,,,0.00,meteohub,2013-11-26 10:23:00,
2013-11-26 04:28:00,64.9,64.0,29.80,South,172,6.0,20.0,97,0.00,,,0.00,meteohub,2013-11-26 10:28:00,
2013-11-26 04:33:00,65.1,64.2,29.80,SE,124,8.0,17.0,97,0.00,,,0.00,meteohub,2013-11-26 10:33:00,
2013-11-26 04:38:00,64.9,64.0,29.81,SSW,198,3.0,17.0,97,0.00,,,0.00,meteohub,2013-11-26 10:38:00,
2013-11-26 04:43:00,64.9,64.0,29.80,SE,134,11.0,17.0,97,0.00,,,0.00,meteohub,2013-11-26 10:43:00,
2013-11-26 04:48:00,64.9,64.0,29.80,East,79,5.0,17.0,97,0.00,,,0.00,meteohub,2013-11-26 10:48:00,
2013-11-26 04:54:00,64.9,64.0,29.79,NE,53,3.0,18.0,97,0.00,,,0.00,meteohub,2013-11-26 10:54:00,
2013-11-26 04:59:00,64.9,64.0,29.79,East,82,8.0,18.0,97,0.00,,,0.00,meteohub,2013-11-26 10:59:00,
2013-11-26 05:04:00,64.9,64.0,29.78,SE,142,9.0,18.0,97,0.00,,,0.00,meteohub,2013-11-26 11:04:00,
2013-11-26 05:09:00,64.9,64.0,29.78,SSE,148,5.0,17.0,97,0.00,,,0.00,meteohub,2013-11-26 11:09:00,
2013-11-26 05:14:00,64.8,63.9,29.78,ESE,107,3.0,18.0,97,0.00,,,0.00,meteohub,2013-11-26 11:14:00,
2013-11-26 05:19:00,64.8,63.9,29.79,SE,130,12.0,18.0,97,0.00,,,0.00,meteohub,2013-11-26 11:19:00,
2013-11-26 05:24:00,64.8,63.9,29.77,SSE,161,3.0,18.0,97,0.00,,,0.00,meteohub,2013-11-26 11:24:00,
2013-11-26 05:29:00,64.8,63.9,29.77,NNE,28,2.0,14.0,97,0.00,,,0.00,meteohub,2013-11-26 11:29:00,
2013-11-26 05:34:00,64.8,63.9,29.76,SSE,159,4.0,13.0,97,0.00,,,0.00,meteohub,2013-11-26 11:34:00,
2013-11-26 05:39:00,64.8,63.9,29.76,SSW,194,7.0,14.0,97,0.00,,,0.00,meteohub,2013-11-26 11:39:00,
2013-11-26 05:44:00,64.8,63.9,29.76,ESE,105,15.0,15.0,97,0.00,,,0.00,meteohub,2013-11-26 11:44:00,
2013-11-26 05:49:00,64.8,63.9,29.76,NNE,25,10.0,15.0,97,0.00,,,0.00,meteohub,2013-11-26 11:49:00,
2013-11-26 05:54:00,64.8,63.9,29.75,ESE,115,2.0,15.0,97,0.00,,,0.00,meteohub,2013-11-26 11:54:00,
2013-11-26 05:59:00,64.8,63.9,29.75,SE,125,0.0,16.0,97,0.00,,,0.00,meteohub,2013-11-26 11:59:00,
2013-11-26 06:04:00,64.8,63.9,29.73,SE,142,1.0,16.0,97,0.00,,,0.00,meteohub,2013-11-26 12:04:00,
2013-11-26 06:09:00,64.9,64.0,29.72,SSE,150,3.0,11.0,97,0.00,,,0.00,meteohub,2013-11-26 12:09:00,
2013-11-26 06:14:00,65.1,64.2,29.72,ESE,123,3.0,13.0,97,0.00,,,0.00,meteohub,2013-11-26 12:14:00,
2013-11-26 06:19:00,65.1,64.2,29.72,SSE,163,3.0,13.0,97,0.00,,,0.00,meteohub,2013-11-26 12:19:00,
2013-11-26 06:24:00,65.5,64.6,29.72,SSE,161,4.0,16.0,97,0.00,,,0.00,meteohub,2013-11-26 12:24:00,
2013-11-26 06:29:00,65.5,64.6,29.71,ESE,103,2.0,19.0,97,0.00,,,0.00,meteohub,2013-11-26 12:29:00,
2013-11-26 06:34:00,65.5,64.6,29.71,SSE,160,20.0,20.0,97,0.00,,,0.00,meteohub,2013-11-26 12:34:00,
2013-11-26 06:39:00,65.5,64.6,29.71,ESE,115,5.0,21.0,97,0.00,,,0.00,meteohub,2013-11-26 12:39:00,
2013-11-26 06:44:00,65.7,64.8,29.71,SSE,154,10.0,22.0,97,0.00,,,0.00,meteohub,2013-11-26 12:44:00,
2013-11-26 06:49:00,65.7,64.8,29.72,SSE,147,6.0,22.0,97,0.00,,,0.00,meteohub,2013-11-26 12:49:00,
2013-11-26 06:54:00,65.8,64.9,29.72,ESE,123,7.0,22.0,97,0.00,,,0.00,meteohub,2013-11-26 12:54:00,
2013-11-26 06:59:00,66.0,65.5,29.72,ESE,115,7.0,24.0,98,0.00,,,0.00,meteohub,2013-11-26 12:59:00,
2013-11-26 07:04:00,66.0,65.5,29.72,ESE,121,8.0,24.0,98,0.00,,,0.00,meteohub,2013-11-26 13:04:00,
2013-11-26 07:09:00,66.2,65.7,29.71,SSE,155,3.0,24.0,98,0.00,,,0.00,meteohub,2013-11-26 13:09:00,
2013-11-26 07:14:00,66.4,65.5,29.71,SE,137,4.0,22.0,97,0.00,,,0.00,meteohub,2013-11-26 13:14:00,
2013-11-26 07:19:00,66.4,65.5,29.70,ESE,105,8.0,22.0,97,0.00,,,0.00,meteohub,2013-11-26 13:19:00,
2013-11-26 07:24:00,66.6,66.0,29.70,South,175,2.0,22.0,98,0.00,,,0.00,meteohub,2013-11-26 13:24:00,
2013-11-26 07:29:00,66.7,66.2,29.70,ESE,106,9.0,18.0,98,0.00,,,0.00,meteohub,2013-11-26 13:29:00,
2013-11-26 07:34:00,66.9,66.4,29.70,ESE,105,4.0,17.0,98,0.00,,,0.00,meteohub,2013-11-26 13:34:00,
2013-11-26 07:40:00,67.3,66.7,29.70,SE,145,1.0,16.0,98,0.00,,,0.00,meteohub,2013-11-26 13:40:00,
2013-11-26 07:45:00,67.5,66.9,29.69,SE,127,7.0,17.0,98,0.00,,,0.00,meteohub,2013-11-26 13:45:00,
2013-11-26 07:50:00,67.6,67.1,29.69,WNW,299,5.0,17.0,98,0.00,,,0.00,meteohub,2013-11-26 13:50:00,
2013-11-26 07:55:00,67.8,67.3,29.70,South,180,6.0,17.0,98,0.00,,,0.00,meteohub,2013-11-26 13:55:00,
2013-11-26 08:00:00,67.8,67.3,29.70,SSE,163,7.0,19.0,98,0.00,,,0.00,meteohub,2013-11-26 14:00:00,
2013-11-26 08:05:00,68.0,67.5,29.69,South,169,7.0,19.0,98,0.00,,,0.00,meteohub,2013-11-26 14:05:00,
2013-11-26 08:10:00,68.4,67.8,29.70,SSE,167,3.0,21.0,98,0.00,,,0.00,meteohub,2013-11-26 14:10:00,
2013-11-26 08:15:00,68.7,68.2,29.69,SSE,148,2.0,21.0,98,0.00,,,0.00,meteohub,2013-11-26 14:15:00,
2013-11-26 08:20:00,69.1,68.5,29.70,SE,145,3.0,21.0,98,0.00,,,0.00,meteohub,2013-11-26 14:20:00,
2013-11-26 08:25:00,69.3,68.7,29.70,SE,134,7.0,16.0,98,0.00,,,0.00,meteohub,2013-11-26 14:25:00,
2013-11-26 08:30:00,69.4,68.9,29.70,SSE,156,1.0,10.0,98,0.00,,,0.00,meteohub,2013-11-26 14:30:00,
2013-11-26 08:35:00,69.4,68.9,29.70,SE,138,1.0,10.0,98,0.00,,,0.00,meteohub,2013-11-26 14:35:00,
2013-11-26 08:40:00,69.4,68.9,29.70,South,175,2.0,10.0,98,0.00,,,0.00,meteohub,2013-11-26 14:40:00,
2013-11-26 08:45:00,69.6,69.1,29.71,SW,215,1.0,8.0,98,0.00,,,0.00,meteohub,2013-11-26 14:45:00,
2013-11-26 08:50:00,70.0,69.4,29.71,SSW,212,4.0,14.0,98,0.00,,,0.00,meteohub,2013-11-26 14:50:00,
2013-11-26 08:55:00,69.8,69.3,29.70,SW,222,2.0,14.0,98,0.00,,,0.00,meteohub,2013-11-26 14:55:00,
2013-11-26 09:00:00,69.8,69.3,29.70,SSW,207,0.0,14.0,98,0.00,,,0.00,meteohub,2013-11-26 15:00:00,
2013-11-26 09:05:00,69.6,68.7,29.70,SSW,207,0.0,9.0,97,0.00,,,0.00,meteohub,2013-11-26 15:05:00,
2013-11-26 09:10:00,69.6,68.7,29.70,SSW,207,0.0,5.0,97,0.00,,,0.00,meteohub,2013-11-26 15:10:00,
2013-11-26 09:15:00,69.4,68.5,29.70,South,182,0.0,2.0,97,0.00,,,0.00,meteohub,2013-11-26 15:15:00,
2013-11-26 09:20:00,69.3,68.4,29.70,South,182,0.0,2.0,97,0.00,,,0.00,meteohub,2013-11-26 15:20:00,
2013-11-26 09:25:00,69.3,68.4,29.70,South,182,0.0,2.0,97,0.00,,,0.00,meteohub,2013-11-26 15:25:00,
2013-11-26 09:30:00,69.1,68.5,29.70,South,182,0.0,0.0,98,0.00,,,0.00,meteohub,2013-11-26 15:30:00,
2013-11-26 09:36:00,69.1,68.5,29.70,South,182,0.0,0.0,98,0.00,,,0.00,meteohub,2013-11-26 15:36:00,
2013-11-26 09:41:00,69.3,68.7,29.70,South,182,0.0,0.0,98,0.00,,,0.00,meteohub,2013-11-26 15:41:00,
2013-11-26 09:46:00,69.3,68.7,29.71,South,182,0.0,1.0,98,0.00,,,0.00,meteohub,2013-11-26 15:46:00,
2013-11-26 09:51:00,69.3,68.7,29.72,South,175,0.0,2.0,98,0.00,,,0.00,meteohub,2013-11-26 15:51:00,
2013-11-26 09:56:00,68.9,68.0,29.71,SSE,152,0.0,4.0,97,0.00,,,0.00,meteohub,2013-11-26 15:56:00,
2013-11-26 10:01:00,68.7,67.8,29.70,SSE,159,2.0,4.0,97,0.00,,,0.00,meteohub,2013-11-26 16:01:00,
2013-11-26 10:06:00,68.5,67.6,29.70,SSW,209,0.0,4.0,97,0.00,,,0.00,meteohub,2013-11-26 16:06:00,
2013-11-26 10:11:00,68.4,67.5,29.69,SW,217,0.0,3.0,97,0.00,,,0.00,meteohub,2013-11-26 16:11:00,
2013-11-26 10:16:00,68.4,67.5,29.69,SW,217,0.0,3.0,97,0.00,,,0.00,meteohub,2013-11-26 16:16:00,
2013-11-26 10:21:00,68.4,67.8,29.69,SW,217,0.0,3.0,98,0.00,,,0.00,meteohub,2013-11-26 16:21:00,
2013-11-26 10:26:00,68.5,68.0,29.69,SSW,193,0.0,2.0,98,0.00,,,0.00,meteohub,2013-11-26 16:26:00,
2013-11-26 10:31:00,68.7,68.2,29.69,SSW,193,0.0,2.0,98,0.00,,,0.00,meteohub,2013-11-26 16:31:00,
2013-11-26 10:36:00,68.9,68.4,29.69,SSW,193,0.0,2.0,98,0.00,,,0.00,meteohub,2013-11-26 16:36:00,
2013-11-26 10:41:00,69.1,68.5,29.70,SW,219,0.0,2.0,98,0.00,,,0.00,meteohub,2013-11-26 16:41:00,
2013-11-26 10:46:00,69.4,68.9,29.70,South,188,1.0,3.0,98,0.00,,,0.00,meteohub,2013-11-26 16:46:00,
2013-11-26 10:51:00,69.4,68.9,29.70,SSW,210,2.0,6.0,98,0.00,,,0.00,meteohub,2013-11-26 16:51:00,
2013-11-26 10:56:00,69.4,68.9,29.71,SSW,209,0.0,6.0,98,0.00,,,0.00,meteohub,2013-11-26 16:56:00,
2013-11-26 11:02:00,67.8,66.6,29.71,West,275,9.0,9.0,96,0.00,,,0.00,meteohub,2013-11-26 17:02:00,
2013-11-26 11:07:00,64.8,63.0,29.70,WSW,258,4.0,14.0,94,0.00,,,0.00,meteohub,2013-11-26 17:07:00,
2013-11-26 11:12:00,63.7,62.6,29.70,WSW,249,2.0,14.0,96,0.00,,,0.00,meteohub,2013-11-26 17:12:00,
2013-11-26 11:17:00,63.0,61.9,29.70,SSW,208,2.0,14.0,96,0.00,,,0.00,meteohub,2013-11-26 17:17:00,
2013-11-26 11:22:00,62.2,61.2,29.70,WSW,257,3.0,11.0,96,0.00,,,0.00,meteohub,2013-11-26 17:22:00,
2013-11-26 11:27:00,61.9,60.8,29.70,WSW,242,7.0,10.0,96,0.00,,,0.00,meteohub,2013-11-26 17:27:00,
2013-11-26 11:32:00,60.6,59.2,29.70,West,272,6.0,12.0,95,0.00,,,0.00,meteohub,2013-11-26 17:32:00,
2013-11-26 11:37:00,59.7,58.6,29.69,West,275,1.0,12.0,96,0.00,,,0.00,meteohub,2013-11-26 17:37:00,
2013-11-26 11:42:00,59.4,58.3,29.68,NW,313,1.0,12.0,96,0.00,,,0.00,meteohub,2013-11-26 17:42:00,
2013-11-26 11:47:00,59.2,58.1,29.70,WSW,251,1.0,11.0,96,0.00,,,0.00,meteohub,2013-11-26 17:47:00,
2013-11-26 11:52:00,58.5,57.4,29.71,West,280,4.0,10.0,96,0.00,,,0.00,meteohub,2013-11-26 17:52:00,
2013-11-26 11:57:00,57.9,56.8,29.71,NW,309,4.0,10.0,96,0.00,,,0.00,meteohub,2013-11-26 17:57:00,
2013-11-26 12:02:00,57.2,56.1,29.69,NW,313,5.0,10.0,96,0.00,,,0.00,meteohub,2013-11-26 18:02:00,
2013-11-26 12:07:00,56.7,55.6,29.69,SW,223,2.0,10.0,96,0.00,,,0.00,meteohub,2013-11-26 18:07:00,
2013-11-26 12:12:00,55.9,54.9,29.70,WNW,303,5.0,10.0,96,0.00,,,0.00,meteohub,2013-11-26 18:12:00,
2013-11-26 12:17:00,55.6,54.5,29.70,WNW,296,4.0,11.0,96,0.00,,,0.00,meteohub,2013-11-26 18:17:00,
2013-11-26 12:22:00,55.4,54.3,29.71,NW,314,4.0,11.0,96,0.00,,,0.00,meteohub,2013-11-26 18:22:00,
2013-11-26 12:27:00,54.9,53.8,29.71,NW,325,3.0,14.0,96,0.00,,,0.00,meteohub,2013-11-26 18:27:00,
2013-11-26 12:32:00,54.7,53.6,29.71,NE,34,7.0,14.0,96,0.00,,,0.00,meteohub,2013-11-26 18:32:00,
2013-11-26 12:37:00,54.1,53.1,29.71,NNW,327,4.0,14.0,96,0.00,,,0.00,meteohub,2013-11-26 18:37:00,
2013-11-26 12:42:00,54.0,52.9,29.70,NW,306,3.0,12.0,96,0.00,,,0.00,meteohub,2013-11-26 18:42:00,
2013-11-26 12:47:00,53.2,52.2,29.70,NNW,334,5.0,12.0,96,0.00,,,0.00,meteohub,2013-11-26 18:47:00,
2013-11-26 12:52:00,52.3,50.9,29.70,NNW,342,8.0,12.0,95,0.00,,,0.00,meteohub,2013-11-26 18:52:00,
2013-11-26 12:57:00,51.6,50.5,29.71,NW,317,4.0,13.0,96,0.00,,,0.00,meteohub,2013-11-26 18:57:00,
2013-11-26 13:02:00,51.4,50.4,29.71,NNW,331,8.0,16.0,96,0.00,,,0.00,meteohub,2013-11-26 19:02:00,
2013-11-26 13:07:00,51.3,50.4,29.72,West,281,4.0,16.0,97,0.00,,,0.00,meteohub,2013-11-26 19:07:00,
2013-11-26 13:12:00,51.1,50.0,29.71,NW,324,1.0,16.0,96,0.00,,,0.00,meteohub,2013-11-26 19:12:00,
2013-11-26 13:17:00,50.5,49.5,29.71,NW,319,5.0,12.0,96,0.00,,,0.00,meteohub,2013-11-26 19:17:00,
2013-11-26 13:22:00,50.7,49.8,29.72,NNW,337,6.0,12.0,97,0.00,,,0.00,meteohub,2013-11-26 19:22:00,
2013-11-26 13:27:00,50.5,49.5,29.71,West,277,4.0,12.0,96,0.00,,,0.00,meteohub,2013-11-26 19:27:00,
2013-11-26 13:32:00,50.4,49.3,29.71,NNW,333,4.0,10.0,96,0.00,,,0.00,meteohub,2013-11-26 19:32:00,
2013-11-26 13:37:00,50.2,49.1,29.72,NW,320,6.0,10.0,96,0.00,,,0.00,meteohub,2013-11-26 19:37:00,
2013-11-26 13:42:00,49.8,48.7,29.72,NNE,15,7.0,10.0,96,0.00,,,0.00,meteohub,2013-11-26 19:42:00,
2013-11-26 13:47:00,49.6,48.6,29.71,NW,308,3.0,10.0,96,0.00,,,0.00,meteohub,2013-11-26 19:47:00,
2013-11-26 13:52:00,49.5,48.4,29.71,NE,38,3.0,10.0,96,0.00,,,0.00,meteohub,2013-11-26 19:52:00,
2013-11-26 13:57:00,49.3,48.2,29.72,North,355,10.0,11.0,96,0.00,,,0.00,meteohub,2013-11-26 19:57:00,
2013-11-26 14:02:00,49.3,48.2,29.71,WSW,248,10.0,14.0,96,0.00,,,0.00,meteohub,2013-11-26 20:02:00,
2013-11-26 14:07:00,48.9,47.8,29.71,NNE,15,5.0,14.0,96,0.00,,,0.00,meteohub,2013-11-26 20:07:00,
2013-11-26 14:12:00,48.9,47.8,29.70,WNW,291,9.0,14.0,96,0.00,,,0.00,meteohub,2013-11-26 20:12:00,
2013-11-26 14:17:00,48.9,47.8,29.70,NW,313,11.0,14.0,96,0.00,,,0.00,meteohub,2013-11-26 20:17:00,
2013-11-26 14:22:00,48.7,47.7,29.70,WSW,249,7.0,14.0,96,0.00,,,0.00,meteohub,2013-11-26 20:22:00,
2013-11-26 14:27:00,48.7,47.7,29.70,NNW,346,6.0,16.0,96,0.00,,,0.00,meteohub,2013-11-26 20:27:00,
2013-11-26 14:32:00,48.9,47.5,29.70,NW,309,5.0,16.0,95,0.00,,,0.00,meteohub,2013-11-26 20:32:00,
2013-11-26 14:37:00,49.3,47.8,29.71,WNW,300,4.0,16.0,95,0.00,,,0.00,meteohub,2013-11-26 20:37:00,
2013-11-26 14:42:00,49.3,47.8,29.71,North,0,5.0,15.0,95,0.00,,,0.00,meteohub,2013-11-26 20:42:00,
2013-11-26 14:47:00,49.5,47.8,29.70,NNE,13,10.0,13.0,94,0.00,,,0.00,meteohub,2013-11-26 20:47:00,
2013-11-26 14:52:00,49.6,48.0,29.70,NNW,330,5.0,17.0,94,0.00,,,0.00,meteohub,2013-11-26 20:52:00,
2013-11-26 14:57:00,49.6,48.0,29.70,NNE,20,6.0,17.0,94,0.00,,,0.00,meteohub,2013-11-26 20:57:00,
2013-11-26 15:02:00,49.8,48.2,29.70,NNW,346,4.0,17.0,94,0.00,,,0.00,meteohub,2013-11-26 21:02:00,
2013-11-26 15:07:00,50.0,48.4,29.70,NNW,336,5.0,13.0,94,0.00,,,0.00,meteohub,2013-11-26 21:07:00,
2013-11-26 15:12:00,50.2,48.6,29.70,NNW,337,7.0,13.0,94,0.00,,,0.00,meteohub,2013-11-26 21:12:00,
2013-11-26 15:17:00,50.4,48.7,29.71,WNW,302,10.0,11.0,94,0.00,,,0.00,meteohub,2013-11-26 21:17:00,
2013-11-26 15:22:00,50.4,48.4,29.72,NW,314,5.0,12.0,93,0.00,,,0.00,meteohub,2013-11-26 21:22:00,
2013-11-26 15:27:00,50.5,48.6,29.72,NW,325,4.0,12.0,93,0.00,,,0.00,meteohub,2013-11-26 21:27:00,
2013-11-26 15:32:00,50.5,48.6,29.73,NW,312,3.0,13.0,93,0.00,,,0.00,meteohub,2013-11-26 21:32:00,
2013-11-26 15:37:00,50.5,48.6,29.73,NW,321,5.0,13.0,93,0.00,,,0.00,meteohub,2013-11-26 21:37:00,
2013-11-26 15:42:00,50.5,48.6,29.74,North,5,4.0,13.0,93,0.00,,,0.00,meteohub,2013-11-26 21:42:00,
2013-11-26 15:47:00,50.5,48.6,29.74,North,355,4.0,13.0,93,0.00,,,0.00,meteohub,2013-11-26 21:47:00,
2013-11-26 15:52:00,50.7,48.7,29.74,NW,310,9.0,11.0,93,0.00,,,0.00,meteohub,2013-11-26 21:52:00,
2013-11-26 15:57:00,50.5,48.6,29.75,West,259,3.0,11.0,93,0.00,,,0.00,meteohub,2013-11-26 21:57:00,
2013-11-26 16:03:00,50.7,48.7,29.75,NNW,348,4.0,11.0,93,0.00,,,0.00,meteohub,2013-11-26 22:03:00,
2013-11-26 16:08:00,50.7,49.1,29.75,NW,317,5.0,11.0,94,0.00,,,0.00,meteohub,2013-11-26 22:08:00,
2013-11-26 16:13:00,50.7,49.1,29.75,WNW,284,0.0,8.0,94,0.00,,,0.00,meteohub,2013-11-26 22:13:00,
2013-11-26 16:18:00,50.7,49.1,29.75,WNW,298,3.0,11.0,94,0.00,,,0.00,meteohub,2013-11-26 22:18:00,
2013-11-26 16:23:00,50.7,49.1,29.75,NW,325,8.0,11.0,94,0.00,,,0.00,meteohub,2013-11-26 22:23:00,
2013-11-26 16:28:00,50.7,49.1,29.75,NNE,17,1.0,11.0,94,0.00,,,0.00,meteohub,2013-11-26 22:28:00,
2013-11-26 16:33:00,50.7,49.1,29.74,North,355,3.0,12.0,94,0.00,,,0.00,meteohub,2013-11-26 22:33:00,
2013-11-26 16:38:00,50.7,49.1,29.75,NNW,334,6.0,12.0,94,0.00,,,0.00,meteohub,2013-11-26 22:38:00,
2013-11-26 16:43:00,50.9,49.3,29.75,North,0,3.0,7.0,94,0.00,,,0.00,meteohub,2013-11-26 22:43:00,
2013-11-26 16:48:00,50.9,49.3,29.75,WNW,288,1.0,7.0,94,0.00,,,0.00,meteohub,2013-11-26 22:48:00,
2013-11-26 16:53:00,51.1,49.6,29.76,NNW,338,5.0,7.0,95,0.00,,,0.00,meteohub,2013-11-26 22:53:00,
2013-11-26 16:58:00,51.1,49.6,29.77,NNW,345,3.0,7.0,95,0.00,,,0.00,meteohub,2013-11-26 22:58:00,
2013-11-26 17:03:00,51.1,49.5,29.77,NNW,348,4.0,7.0,94,0.00,,,0.00,meteohub,2013-11-26 23:03:00,
2013-11-26 17:08:00,51.3,49.8,29.76,WNW,294,2.0,8.0,95,0.00,,,0.00,meteohub,2013-11-26 23:08:00,
2013-11-26 17:13:00,51.3,49.6,29.75,NW,325,1.0,8.0,94,0.00,,,0.00,meteohub,2013-11-26 23:13:00,
2013-11-26 17:18:00,51.3,49.8,29.75,NNW,343,4.0,8.0,95,0.00,,,0.00,meteohub,2013-11-26 23:18:00,
2013-11-26 17:23:00,51.3,49.8,29.76,NW,314,4.0,8.0,95,0.00,,,0.00,meteohub,2013-11-26 23:23:00,
2013-11-26 17:28:00,51.3,49.8,29.75,NNW,327,0.0,8.0,95,0.00,,,0.00,meteohub,2013-11-26 23:28:00,
2013-11-26 17:33:00,51.3,49.8,29.77,WNW,301,2.0,8.0,95,0.00,,,0.00,meteohub,2013-11-26 23:33:00,
2013-11-26 17:38:00,51.4,50.0,29.77,NNW,333,2.0,8.0,95,0.00,,,0.00,meteohub,2013-11-26 23:38:00,
2013-11-26 17:43:00,51.4,50.0,29.78,NNW,328,0.0,7.0,95,0.00,,,0.00,meteohub,2013-11-26 23:43:00,
2013-11-26 17:48:00,51.4,50.0,29.78,NW,325,3.0,8.0,95,0.00,,,0.00,meteohub,2013-11-26 23:48:00,
2013-11-26 17:53:00,51.4,50.0,29.78,West,269,1.0,8.0,95,0.00,,,0.00,meteohub,2013-11-26 23:53:00,
2013-11-26 17:58:00,51.4,50.0,29.78,West,271,6.0,8.0,95,0.00,,,0.00,meteohub,2013-11-26 23:58:00,
2013-11-26 18:03:00,51.4,50.0,29.78,NW,304,1.0,7.0,95,0.00,,,0.00,meteohub,2013-11-27 00:03:00,
2013-11-26 18:08:00,51.6,50.2,29.80,WSW,250,4.0,9.0,95,0.00,,,0.00,meteohub,2013-11-27 00:08:00,
2013-11-26 18:13:00,51.6,50.2,29.81,WNW,289,3.0,9.0,95,0.00,,,0.00,meteohub,2013-11-27 00:13:00,
2013-11-26 18:18:00,51.4,50.0,29.79,NNW,331,5.0,9.0,95,0.00,,,0.00,meteohub,2013-11-27 00:18:00,
2013-11-26 18:24:00,51.4,50.0,29.80,West,275,1.0,8.0,95,0.00,,,0.00,meteohub,2013-11-27 00:24:00,
2013-11-26 18:29:00,51.4,50.0,29.80,WNW,296,1.0,8.0,95,0.00,,,0.00,meteohub,2013-11-27 00:29:00,
2013-11-26 18:34:00,51.3,49.8,29.81,WNW,296,8.0,8.0,95,0.00,,,0.00,meteohub,2013-11-27 00:34:00,
2013-11-26 18:39:00,51.1,49.6,29.81,NW,306,6.0,10.0,95,0.00,,,0.00,meteohub,2013-11-27 00:39:00,
2013-11-26 18:44:00,50.7,49.3,29.80,North,349,3.0,10.0,95,0.00,,,0.00,meteohub,2013-11-27 00:44:00,
2013-11-26 18:49:00,50.7,49.3,29.80,North,355,4.0,10.0,95,0.00,,,0.00,meteohub,2013-11-27 00:49:00,
2013-11-26 18:54:00,50.7,49.1,29.80,NW,310,1.0,10.0,94,0.00,,,0.00,meteohub,2013-11-27 00:54:00,
2013-11-26 18:59:00,50.5,48.9,29.80,WSW,258,7.0,9.0,94,0.00,,,0.00,meteohub,2013-11-27 00:59:00,
2013-11-26 19:04:00,50.5,48.9,29.80,WNW,282,1.0,8.0,94,0.00,,,0.00,meteohub,2013-11-27 01:04:00,
2013-11-26 19:09:00,50.5,48.9,29.80,North,355,3.0,9.0,94,0.00,,,0.00,meteohub,2013-11-27 01:09:00,
2013-11-26 19:14:00,50.4,48.7,29.80,North,355,6.0,9.0,94,0.00,,,0.00,meteohub,2013-11-27 01:14:00,
2013-11-26 19:19:00,50.4,48.7,29.81,North,5,2.0,9.0,94,0.00,,,0.00,meteohub,2013-11-27 01:19:00,
2013-11-26 19:24:00,50.4,48.9,29.79,NW,309,1.0,9.0,95,0.00,,,0.00,meteohub,2013-11-27 01:24:00,
2013-11-26 19:29:00,50.5,49.1,29.81,West,268,4.0,9.0,95,0.00,,,0.00,meteohub,2013-11-27 01:29:00,
2013-11-26 19:34:00,50.5,49.1,29.82,West,269,1.0,8.0,95,0.00,,,0.00,meteohub,2013-11-27 01:34:00,
2013-11-26 19:39:00,50.5,49.1,29.82,WNW,295,6.0,8.0,95,0.00,,,0.00,meteohub,2013-11-27 01:39:00,
2013-11-26 19:45:00,50.5,48.9,29.81,WNW,302,2.0,9.0,94,0.00,,,0.00,meteohub,2013-11-27 01:45:00,
2013-11-26 19:50:00,50.5,49.1,29.81,West,277,2.0,10.0,95,0.00,,,0.00,meteohub,2013-11-27 01:50:00,
2013-11-26 19:55:00,50.5,48.9,29.82,WNW,293,3.0,10.0,94,0.00,,,0.00,meteohub,2013-11-27 01:55:00,
2013-11-26 20:00:00,50.4,48.7,29.82,NW,326,3.0,10.0,94,0.00,,,0.00,meteohub,2013-11-27 02:00:00,
2013-11-26 20:05:00,50.4,48.7,29.82,WNW,284,4.0,10.0,94,0.00,,,0.00,meteohub,2013-11-27 02:05:00,
2013-11-26 20:09:00,50.4,48.7,29.81,West,273,7.0,13.0,94,0.00,,,0.00,meteohub,2013-11-27 02:09:00,
2013-11-26 20:12:00,50.4,48.7,29.81,WSW,248,4.0,13.0,94,0.00,,,0.00,meteohub,2013-11-27 02:12:00,
2013-11-26 20:25:00,50.2,48.6,29.82,NW,323,6.0,14.0,94,0.00,,,0.00,meteohub,2013-11-27 02:25:00,
2013-11-26 20:30:00,49.8,48.2,29.82,NW,304,6.0,14.0,94,0.00,,,0.00,meteohub,2013-11-27 02:30:00,
2013-11-26 20:35:00,49.6,48.0,29.82,North,355,9.0,12.0,94,0.00,,,0.00,meteohub,2013-11-27 02:35:00,
2013-11-26 20:40:00,49.6,48.2,29.81,WNW,297,1.0,12.0,95,0.00,,,0.00,meteohub,2013-11-27 02:40:00,
2013-11-26 20:45:00,49.5,48.0,29.81,West,265,7.0,12.0,95,0.00,,,0.00,meteohub,2013-11-27 02:45:00,
2013-11-26 20:50:00,49.3,47.8,29.81,WSW,242,5.0,12.0,95,0.00,,,0.00,meteohub,2013-11-27 02:50:00,
2013-11-26 20:55:00,49.3,48.2,29.81,WNW,300,4.0,12.0,96,0.00,,,0.00,meteohub,2013-11-27 02:55:00,
2013-11-26 21:00:00,49.1,48.0,29.82,NW,321,7.0,12.0,96,0.00,,,0.00,meteohub,2013-11-27 03:00:00,
2013-11-26 21:05:00,49.1,48.0,29.82,WNW,296,1.0,11.0,96,0.00,,,0.00,meteohub,2013-11-27 03:05:00,
2013-11-26 21:10:00,49.3,48.2,29.82,West,273,4.0,11.0,96,0.00,,,0.00,meteohub,2013-11-27 03:10:00,
2013-11-26 21:16:00,49.3,48.2,29.82,West,274,5.0,11.0,96,0.00,,,0.00,meteohub,2013-11-27 03:16:00,
2013-11-26 21:21:00,49.3,48.2,29.82,WNW,300,6.0,10.0,96,0.00,,,0.00,meteohub,2013-11-27 03:21:00,
2013-11-26 21:26:00,49.3,48.2,29.82,NW,321,6.0,11.0,96,0.00,,,0.00,meteohub,2013-11-27 03:26:00,
2013-11-26 21:31:00,49.1,48.0,29.82,WNW,293,7.0,18.0,96,0.00,,,0.00,meteohub,2013-11-27 03:31:00,
2013-11-26 21:36:00,48.9,47.5,29.82,WNW,287,4.0,18.0,95,0.00,,,0.00,meteohub,2013-11-27 03:36:00,
2013-11-26 21:41:00,48.9,47.5,29.83,NW,304,4.0,18.0,95,0.00,,,0.00,meteohub,2013-11-27 03:41:00,
2013-11-26 21:46:00,48.9,47.5,29.83,NW,325,8.0,16.0,95,0.00,,,0.00,meteohub,2013-11-27 03:46:00,
2013-11-26 21:51:00,48.7,47.3,29.83,NNW,336,6.0,14.0,95,0.00,,,0.00,meteohub,2013-11-27 03:51:00,
2013-11-26 21:56:00,48.7,47.1,29.83,NNW,329,5.0,16.0,94,0.00,,,0.00,meteohub,2013-11-27 03:56:00,
2013-11-26 22:01:00,48.7,47.1,29.84,NNW,340,3.0,16.0,94,0.00,,,0.00,meteohub,2013-11-27 04:01:00,
2013-11-26 22:06:00,48.7,47.1,29.84,WNW,286,3.0,16.0,94,0.00,,,0.00,meteohub,2013-11-27 04:06:00,
2013-11-26 22:11:00,48.9,47.5,29.84,NNW,346,6.0,15.0,95,0.00,,,0.00,meteohub,2013-11-27 04:11:00,
2013-11-26 22:17:00,48.9,47.5,29.85,WSW,241,3.0,13.0,95,0.00,,,0.00,meteohub,2013-11-27 04:17:00,
2013-11-26 22:22:00,48.9,47.5,29.85,WSW,254,3.0,10.0,95,0.00,,,0.00,meteohub,2013-11-27 04:22:00,
2013-11-26 22:27:00,48.7,47.1,29.85,NNW,331,9.0,13.0,94,0.00,,,0.00,meteohub,2013-11-27 04:27:00,
2013-11-26 22:32:00,48.6,46.9,29.85,West,269,4.0,15.0,94,0.00,,,0.00,meteohub,2013-11-27 04:32:00,
2013-11-26 22:37:00,48.6,46.9,29.85,NNW,327,7.0,15.0,94,0.00,,,0.00,meteohub,2013-11-27 04:37:00,
2013-11-26 22:42:00,48.4,46.8,29.85,WSW,255,5.0,14.0,94,0.00,,,0.00,meteohub,2013-11-27 04:42:00,
2013-11-26 22:47:00,48.2,46.6,29.85,NNW,329,4.0,16.0,94,0.00,,,0.00,meteohub,2013-11-27 04:47:00,
2013-11-26 22:52:00,48.0,46.4,29.85,West,277,2.0,20.0,94,0.00,,,0.00,meteohub,2013-11-27 04:52:00,
2013-11-26 22:57:00,47.8,46.4,29.84,NW,323,8.0,20.0,95,0.00,,,0.00,meteohub,2013-11-27 04:57:00,
2013-11-26 23:01:00,47.8,46.4,29.85,WNW,296,5.0,14.0,95,0.00,,,0.00,meteohub,2013-11-27 05:01:00,
2013-11-26 23:02:00,47.8,46.4,29.85,NW,308,11.0,14.0,95,0.00,,,0.00,meteohub,2013-11-27 05:02:00,
2013-11-26 23:03:00,47.8,46.4,29.85,WNW,288,6.0,14.0,95,0.00,,,0.00,meteohub,2013-11-27 05:03:00,
2013-11-26 23:08:00,47.7,46.2,29.86,WNW,300,4.0,16.0,95,0.00,,,0.00,meteohub,2013-11-27 05:08:00,
2013-11-26 23:13:00,47.7,46.2,29.86,NW,323,5.0,16.0,95,0.00,,,0.00,meteohub,2013-11-27 05:13:00,
2013-11-26 23:18:00,47.5,46.0,29.86,WNW,297,6.0,16.0,95,0.00,,,0.00,meteohub,2013-11-27 05:18:00,
2013-11-26 23:24:00,47.1,45.5,29.86,NW,309,6.0,14.0,94,0.00,,,0.00,meteohub,2013-11-27 05:24:00,
2013-11-26 23:29:00,46.9,45.3,29.86,WNW,292,2.0,17.0,94,0.00,,,0.00,meteohub,2013-11-27 05:29:00,
2013-11-26 23:34:00,46.8,45.1,29.86,West,278,3.0,17.0,94,0.00,,,0.00,meteohub,2013-11-27 05:34:00,
2013-11-26 23:39:00,46.8,45.1,29.87,WNW,283,9.0,17.0,94,0.00,,,0.00,meteohub,2013-11-27 05:39:00,
2013-11-26 23:44:00,46.6,45.0,29.87,NW,318,5.0,15.0,94,0.00,,,0.00,meteohub,2013-11-27 05:44:00,
2013-11-26 23:49:00,46.6,45.1,29.87,NW,321,3.0,15.0,95,0.00,,,0.00,meteohub,2013-11-27 05:49:00,
2013-11-26 23:54:00,46.4,45.0,29.87,NW,325,3.0,16.0,95,0.00,,,0.00,meteohub,2013-11-27 05:54:00,
2013-11-26 23:59:00,46.0,44.6,29.87,West,271,6.0,16.0,95,0.00,,,0.00,meteohub,2013-11-27 05:59:00,